Temperature
11 11 11 11 11 11 11 11 11 11 11 11 11 11 11 11 11 10 10 11 11 10 10 10 10 10 10 10 10 9 10 10 10 10 9 9 9 9 9 10 9 9 9
10 10 10 10 10 10 10 10 10 10 10 10 10 10 10 10 10 10 10 10 10 10 10 10 10 10 10 9 9 9 9 9 9 9 9 9 9 9 9 9 9 9 9
10 9 10 10 10 10 10 10 10 10 10 10 10 10 10 10 10 10 10 10 10 10 10 10 10 9 9 9 9 9 9 9 9 9 9 9 9 9 9 9 9 9 9
9 9 9 9 9 9 9 9 9 9 9 9 9 9 9 9 9 9 9 9 9 9 9 9 9 9 9 9 9 9 8 9 9 9 9 9 9 9 8 8 8 8 8
8 8 8 8 8 8 8 8 8 8 8 8 9 9 9 9 9 9 9 9 9 9 9 9 9 9 9 9 8 8 8 8 8 8 8 8 8 8 8 8 8 8 8
8 8 8 8 8 8 8 8 8 8 8 8 8 8 8 8 8 8 8 8 8 8 8 8 8 8 8 8 8 8 8 8 8 8 8 8 8 8 8 8 8 8 8
7 7 7 7 7 7 7 7 7 7 7 7 7 7 7 7 7 7 7 7 7 7 7 7 7 7 7 8 8 7 7 7 7 7 7 7 7 7 8 8 8 7 7
7 6 6 6 6 6 6 6 7 6 6 6 6 6 6 6 6 7 7 7 7 7 7 7 7 7 7 7 7 7 7 7 7 7 7 7 7 7 7 7 7 7 7
6 6 6 6 6 6 6 6 6 6 6 5 5 5 5 6 5 6 6 6 6 6 6 6 6 6 6 6 6 6 7 7 7 7 7 7 6 7 7 7 7 7 7
5 5 5 5 5 5 5 5 5 5 5 5 5 5 5 5 4 5 5 5 6 6 6 6 6 6 6 6 6 6 6 6 6 6 6 6 6 6 6 6 6 6 6
5 5 5 5 5 5 5 5 5 5 5 4 4 4 4 4 4 4 4 5 5 5 5 5 5 5 5 5 5 5 6 6 6 6 6 6 6 6 6 6 6 6 6
4 4 4 4 4 4 4 4 4 4 4 4 4 4 3 3 4 3 3 4 4 4 5 5 5 5 5 5 5 5 5 5 5 5 5 5 5 5 5 5 5 5 5
4 4 4 3 3 3 3 4 4 4 3 3 3 3 3 3 3 3 3 3 3 4 4 4 4 4 4 4 4 4 5 5 5 5 5 5 5 5 5 5 5 5 5
3 3 3 3 3 3 3 3 3 3 3 3 3 3 3 3 3 3 3 3 3 3 3 4 4 4 4 4 4 4 4 4 4 4 4 4 4 4 4 4 4 4 4
2 2 2 2 2 2 2 2 2 2 2 2 2 2 2 2 2 2 2 2 2 2 3 3 3 3 3 3 3 3 3 3 4 4 4 4 4 4 4 4 4 4 3
2 2 1 1 1 1 2 1 1 2 2 2 2 2 2 2 2 2 2 2 2 2 2 2 3 3 3 3 3 3 3 3 3 3 3 3 3 3 3 3 3 3 3
1 1 1 1 1 1 1 1 1 1 1 1 1 1 1 1 1 1 1 1 1 1 1 2 2 2 2 2 2 2 2 2 2 3 3 3 3 3 3 3 3 3 3
0 0 0 0 -0 0 0 0 0 0 0 1 1 1 1 1 1 1 1 1 1 1 1 1 1 1 1 1 2 2 2 2 2 2 2 2 2 2 2 2 2 2 2
-0 -0 -0 -1 -1 -1 -0 -0 -0 -0 -0 -0 -0 -0 0 0 0 0 0 0 0 0 0 0 0 1 1 1 1 1 1 1 1 2 2 2 2 2 2 2 2 2 2
-1 -1 -1 -1 -1 -1 -1 -1 -1 -1 -1 -1 -1 -0 -0 -0 -0 -0 -0 -0 -0 -0 -0 -0 -0 -0 -0 0 0 0 0 1 1 1 1 1 1 1 1 1 1 2 2
-1 -1 -1 -1 -1 -1 -1 -2 -1 -1 -1 -1 -1 -1 -1 -1 -0 -0 -0 -0 -0 -1 -1 -1 -1 -1 -1 -1 -1 -1 -0 -0 0 0 0 0 0 1 1 1 1 1 1
-1 -2 -2 -2 -2 -2 -2 -2 -2 -2 -2 -1 -1 -1 -1 -1 -1 -1 -1 -1 -1 -1 -1 -1 -1 -1 -1 -1 -1 -1 -1 -1 -1 -0 -0 -0 -0 0 0 0 1 1 1
-2 -2 -2 -2 -2 -2 -2 -2 -2 -2 -2 -2 -2 -1 -1 -1 -1 -1 -1 -1 -1 -1 -1 -1 -1 -1 -1 -1 -1 -1 -1 -1 -1 -1 -1 -1 -1 -1 -0 -0 0 0 0
-2 -2 -2 -3 -3 -2 -2 -2 -2 -2 -2 -2 -2 -2 -2 -2 -2 -2 -2 -2 -1 -1 -1 -1 -1 -1 -1 -1 -1 -1 -1 -1 -1 -1 -1 -1 -1 -1 -1 -0 -0 -0 -0
-3 -3 -3 -3 -3 -3 -3 -3 -3 -3 -3 -2 -2 -2 -2 -2 -2 -2 -2 -2 -2 -2 -2 -2 -2 -2 -2 -2 -2 -2 -2 -2 -2 -2 -1 -2 -2 -2 -1 -1 -1 -1 -1
-3 -3 -3 -3 -3 -3 -3 -3 -3 -3 -3 -3 -3 -3 -2 -2 -2 -2 -2 -2 -2 -2 -2 -2 -2 -2 -2 -2 -2 -2 -2 -2 -2 -2 -2 -2 -2 -2 -2 -1 -1 -1 -1
Wind_Speed
1 1 2 2 2 2 2 2 2 2 2 2 3 3 3 3 4 4 3 2 3 4 5 6 6 6 6 6 6 6 6 7 7 8 7 7 7 8 8 8 9 9 8
2 2 2 2 2 2 2 3 3 3 3 3 3 4 4 4 4 4 4 4 4 5 6 6 6 7 7 7 8 8 8 8 9 9 9 8 8 8 8 8 8 8 9
2 2 2 2 2 3 3 3 3 3 3 3 4 4 4 5 5 5 5 4 4 5 6 6 6 7 8 8 9 9 9 9 9 9 9 9 9 9 9 9 9 9 9
3 2 2 2 3 3 2 2 3 3 3 4 4 4 4 4 5 5 4 4 4 4 5 5 6 7 8 9 9 9 10 10 10 10 10 10 10 10 10 11 11 11 11
3 2 2 3 3 2 2 2 3 3 3 4 4 4 4 4 4 4 4 4 4 4 4 4 5 6 8 9 9 10 10 10 10 10 11 11 11 12 12 12 12 12 12
3 3 2 3 3 2 2 2 3 3 3 4 4 4 4 4 4 4 4 4 3 4 5 5 5 6 7 9 10 10 10 10 10 10 11 12 12 13 13 13 13 12 12
3 3 3 3 3 3 3 3 3 3 3 3 3 4 4 4 4 4 3 4 4 4 5 5 5 6 6 8 9 9 10 11 11 11 11 12 13 14 14 13 13 14 13
3 3 3 3 3 3 3 3 3 3 3 2 3 3 3 4 4 4 4 4 5 5 5 6 6 6 7 7 7 9 10 11 12 12 12 12 13 14 14 14 14 14 14
4 3 4 4 4 4 3 4 4 4 4 3 3 3 3 3 3 4 5 5 5 5 5 5 7 7 8 7 7 7 9 11 12 13 13 13 13 14 14 14 14 14 14
4 4 4 5 4 4 4 5 5 5 5 5 4 4 5 4 3 3 3 5 6 7 7 6 7 7 8 7 7 8 8 10 12 13 14 14 14 15 15 14 14 14 14
4 5 5 5 5 5 5 5 5 6 5 6 5 4 5 5 6 4 5 5 5 6 6 7 6 6 7 7 7 8 9 11 12 13 13 14 15 16 15 14 13 14 14
4 5 5 5 5 5 6 6 6 6 6 7 6 6 5 5 5 5 6 7 7 6 6 6 6 6 6 7 8 8 10 11 12 12 13 14 15 15 14 13 13 13 15
4 5 5 5 5 6 6 6 6 6 7 7 7 6 6 7 6 6 7 7 7 6 5 5 5 5 6 7 8 9 10 11 11 12 12 12 13 13 12 12 12 13 14
5 6 6 6 6 6 6 6 6 7 6 7 8 7 6 6 6 7 7 7 7 7 6 6 4 5 5 7 8 8 9 9 10 11 11 11 11 11 11 11 12 12 13
5 6 6 7 7 7 7 7 6 7 6 6 6 7 6 6 6 7 7 8 7 7 7 6 5 5 5 6 7 8 8 9 9 10 10 10 10 10 10 11 11 12 12
6 6 7 7 7 7 7 6 6 6 6 6 5 6 7 6 6 6 7 7 7 8 8 6 6 6 5 6 7 8 8 9 9 9 9 10 10 10 11 11 11 11 11
6 6 6 6 6 6 6 6 6 6 6 6 6 7 8 7 7 6 6 6 7 7 9 8 6 6 6 6 6 6 8 7 7 8 9 10 10 10 10 9 9 10 10
6 6 6 6 6 6 6 7 7 7 7 7 7 7 8 7 8 7 6 7 6 7 8 9 7 6 7 6 6 6 6 6 6 7 7 9 9 8 8 8 9 9 9
6 6 6 6 6 7 7 7 7 7 7 8 8 8 8 7 8 7 7 7 6 6 7 7 8 6 6 5 6 6 6 5 6 6 7 7 7 7 8 9 9 8 9
6 6 6 7 7 7 7 7 7 7 8 8 8 8 8 8 8 8 7 7 6 7 7 7 6 5 5 5 5 5 5 5 5 5 5 5 6 6 7 8 8 7 8
6 6 6 6 6 6 6 6 6 7 8 8 8 8 8 8 9 8 7 7 7 6 6 6 6 5 5 4 4 4 6 5 6 4 4 4 4 4 5 6 6 6 6
6 6 6 6 6 5 6 7 7 7 7 8 8 7 7 8 8 9 10 9 9 8 7 7 6 7 7 6 5 5 5 5 5 3 4 5 4 4 4 5 6 6 6
6 6 6 6 6 6 7 7 8 7 7 7 7 6 6 6 7 6 7 8 8 9 9 8 8 7 7 6 5 6 6 7 6 5 4 5 4 4 4 5 6 7 7
6 6 6 6 6 6 7 8 8 7 7 7 7 7 6 6 5 6 6 6 7 7 7 7 7 7 6 6 6 7 7 6 5 4 4 5 5 5 5 4 5 5 5
6 6 6 6 6 6 7 8 8 6 6 6 5 5 6 6 6 6 6 6 6 6 5 6 6 6 7 6 5 4 5 4 4 4 3 3 4 4 5 4 3 4 5
5 5 5 5 6 6 6 7 7 4 4 4 4 5 5 6 7 7 6 6 6 6 5 4 4 4 5 5 5 5 5 4 4 3 2 2 3 3 3 3 3 4 4
Wind_Direction
349 342 336 331 324 299 269 273 267 261 262 264 261 261 261 257 259 253 246 225 253 270 256 248 250 254 260 263 266 269 270 269 270 268 266 266 268 268 269 269 271 271 272
338 325 315 309 312 309 291 266 264 262 260 259 260 259 259 256 254 253 250 233 238 259 259 256 257 259 263 265 267 270 270 272 271 270 268 265 265 266 269 269 270 270 271
323 318 305 296 301 296 289 279 265 261 258 258 260 262 259 255 253 252 250 248 246 247 252 258 264 268 269 270 271 271 272 272 270 268 267 264 263 263 264 265 266 268 271
326 312 303 292 295 287 280 270 266 259 257 260 263 263 258 253 250 250 250 248 252 257 251 256 267 273 275 274 273 273 272 272 270 268 264 263 262 262 262 263 264 267 269
320 313 306 309 298 283 274 270 263 262 262 265 267 265 257 249 245 242 240 245 252 264 266 258 261 271 276 276 276 276 275 274 273 271 267 265 264 264 263 263 263 265 267
316 311 304 304 304 280 273 270 273 268 263 274 270 265 258 248 240 236 239 244 250 262 265 272 269 269 272 277 275 275 275 276 277 277 273 269 268 266 264 263 261 263 265
316 312 307 300 296 282 277 270 267 269 270 276 268 262 248 235 235 233 241 248 255 263 263 268 274 278 276 277 278 281 280 276 274 276 277 274 271 269 268 265 263 263 264
301 304 300 291 288 283 276 271 265 265 269 266 268 267 257 235 224 235 239 247 259 265 264 265 268 272 274 275 279 278 283 282 277 275 276 276 274 272 271 269 267 265 264
291 293 292 289 283 276 273 266 258 254 255 255 248 260 263 256 272 234 233 242 254 262 266 266 263 268 270 272 277 274 279 282 282 280 277 275 276 276 272 270 272 270 268
283 284 285 281 278 272 266 263 253 251 248 248 245 243 255 272 263 270 248 249 258 262 263 265 266 267 268 270 272 277 282 283 283 284 282 278 276 276 276 274 273 274 270
282 284 283 280 275 272 267 262 258 248 244 246 245 245 245 251 249 257 271 273 273 265 262 266 267 268 269 267 269 276 283 283 283 283 285 284 280 278 278 279 278 275 274
277 281 283 276 273 272 269 263 258 252 245 246 246 244 244 245 246 251 264 275 279 279 277 270 267 269 271 271 270 279 280 280 280 281 284 285 284 284 283 282 280 280 278
277 276 278 272 271 273 273 267 261 258 251 248 247 248 244 244 251 256 264 273 277 282 280 273 269 271 273 274 275 278 276 276 277 278 279 282 282 283 283 282 285 284 284
273 276 274 273 274 273 271 266 262 259 256 248 246 247 247 249 249 250 256 266 274 278 274 274 276 270 274 277 281 281 281 278 279 280 279 279 278 280 282 283 285 287 286
273 271 271 271 271 270 267 264 260 258 256 254 250 247 248 252 255 252 252 253 258 269 274 275 274 275 280 282 286 283 283 284 285 284 282 283 283 283 282 281 282 283 285
273 271 270 269 269 267 263 259 259 257 255 256 257 254 252 254 256 253 253 255 253 256 268 273 281 286 288 289 290 288 289 290 285 283 285 285 285 285 282 281 280 280 283
270 266 265 265 265 263 261 257 256 258 258 261 260 257 257 254 253 255 254 253 254 253 262 274 280 285 287 286 289 289 289 290 289 285 286 287 287 285 281 281 282 282 282
271 268 265 264 265 263 259 255 256 257 258 261 262 261 259 256 254 252 251 253 254 254 258 270 281 285 287 287 289 292 292 288 288 294 292 288 286 286 283 283 281 282 284
271 269 265 263 264 263 259 256 256 257 257 258 259 257 260 259 258 257 254 255 256 257 258 264 275 283 288 292 292 290 289 289 292 296 294 291 292 291 291 289 283 283 285
273 270 267 265 264 263 259 256 256 257 258 259 258 257 259 259 259 260 258 257 258 259 260 262 268 277 285 292 290 287 290 292 294 297 295 296 298 297 298 294 289 283 283
275 270 268 267 264 260 259 261 259 258 259 261 259 259 261 262 264 263 262 261 257 256 259 263 266 272 276 281 278 285 283 292 292 291 295 299 303 307 308 300 293 291 288
278 272 268 265 263 260 263 263 268 262 261 261 261 263 264 260 262 265 268 268 266 258 256 257 262 261 268 275 279 276 277 282 285 286 296 296 297 301 309 306 309 306 303
280 273 270 268 267 267 264 265 271 270 263 262 262 263 266 265 263 262 268 271 273 272 266 262 259 261 264 266 271 276 274 275 278 285 290 287 298 299 305 305 306 305 306
280 274 271 270 271 269 267 270 273 267 265 265 262 260 263 266 263 264 267 271 271 270 269 265 263 265 268 271 265 268 274 282 284 286 285 281 293 296 301 301 303 304 312
279 277 276 272 272 273 269 272 275 271 267 269 268 265 263 262 264 268 265 266 271 274 273 268 273 277 278 278 277 271 265 264 276 278 281 276 286 298 300 300 309 316 320
280 283 281 278 275 279 281 280 279 270 268 274 274 270 264 267 269 268 262 261 266 271 274 280 277 280 278 272 272 262 255 255 271 270 256 268 280 299 297 292 311 323 320
Height
1521 1521 1521 1520 1520 1520 1520 1520 1520 1519 1519 1519 1519 1519 1519 1519 1519 1519 1518 1518 1518 1519 1519 1519 1518 1518 1518 1518 1517 1517 1516 1516 1515 1515 1515 1514 1514 1513 1513 1512 1511 1511 1511
1519 1519 1518 1518 1518 1517 1517 1517 1517 1517 1517 1516 1516 1516 1516 1516 1515 1515 1515 1515 1515 1515 1516 1516 1515 1515 1515 1515 1514 1514 1513 1513 1512 1512 1512 1511 1511 1510 1510 1509 1509 1508 1508
1516 1516 1516 1515 1515 1515 1514 1514 1514 1514 1514 1513 1513 1513 1513 1512 1512 1512 1512 1512 1512 1512 1512 1512 1512 1512 1511 1511 1511 1511 1510 1510 1509 1509 1508 1508 1507 1507 1506 1506 1505 1505 1504
1514 1514 1513 1513 1512 1512 1511 1511 1511 1511 1510 1510 1510 1509 1509 1509 1509 1509 1509 1508 1508 1508 1508 1508 1508 1508 1508 1507 1507 1507 1506 1506 1506 1505 1505 1504 1504 1503 1502 1502 1501 1501 1500
1511 1511 1510 1510 1509 1509 1508 1508 1508 1507 1507 1506 1506 1506 1506 1505 1505 1505 1505 1505 1505 1505 1504 1504 1504 1504 1504 1503 1503 1503 1503 1502 1502 1501 1501 1500 1499 1499 1498 1498 1497 1497 1496
1508 1508 1507 1507 1506 1506 1505 1505 1504 1504 1503 1503 1502 1502 1502 1501 1501 1501 1501 1501 1501 1501 1501 1500 1500 1500 1499 1499 1499 1498 1498 1498 1497 1497 1496 1496 1495 1495 1494 1493 1493 1492 1492
1505 1505 1504 1504 1503 1503 1502 1502 1501 1501 1500 1500 1499 1498 1498 1497 1497 1497 1498 1497 1498 1497 1497 1496 1496 1496 1495 1494 1494 1494 1493 1493 1493 1492 1492 1491 1491 1490 1490 1489 1488 1487 1487
1502 1502 1501 1501 1500 1499 1499 1498 1498 1497 1497 1497 1497 1496 1496 1496 1493 1493 1493 1493 1494 1493 1493 1492 1492 1491 1491 1490 1489 1489 1489 1488 1488 1487 1487 1486 1486 1486 1485 1484 1484 1483 1482
1499 1498 1498 1497 1497 1496 1495 1495 1495 1494 1494 1494 1494 1494 1494 1492 1491 1490 1489 1489 1489 1489 1488 1488 1487 1487 1486 1485 1485 1484 1484 1484 1483 1483 1482 1481 1481 1480 1480 1479 1479 1478 1477
1495 1494 1494 1493 1493 1492 1492 1491 1491 1491 1491 1490 1490 1490 1490 1489 1489 1486 1486 1485 1485 1484 1484 1483 1483 1482 1481 1481 1480 1479 1479 1478 1478 1477 1477 1476 1475 1475 1475 1474 1473 1473 1472
1491 1490 1489 1489 1488 1488 1487 1487 1487 1486 1486 1486 1486 1486 1485 1486 1485 1484 1482 1482 1481 1480 1479 1479 1478 1478 1477 1476 1475 1474 1474 1473 1473 1472 1471 1470 1470 1469 1469 1468 1468 1467 1467
1486 1485 1485 1484 1484 1483 1483 1482 1482 1482 1481 1481 1481 1481 1481 1481 1481 1480 1479 1478 1476 1475 1474 1474 1474 1473 1473 1472 1471 1469 1469 1468 1467 1466 1465 1464 1464 1463 1463 1462 1462 1461 1461
1481 1481 1480 1480 1479 1478 1478 1477 1477 1477 1476 1476 1476 1476 1476 1476 1476 1476 1475 1473 1472 1471 1470 1469 1469 1469 1468 1467 1466 1465 1464 1463 1462 1460 1459 1459 1458 1457 1457 1456 1456 1455 1455
1477 1476 1475 1475 1474 1473 1473 1472 1471 1471 1471 1471 1471 1471 1471 1471 1471 1471 1471 1470 1468 1466 1465 1465 1464 1464 1463 1462 1461 1460 1459 1457 1456 1455 1454 1453 1452 1452 1451 1450 1450 1450 1449
1472 1471 1470 1469 1469 1468 1467 1467 1466 1466 1466 1466 1466 1466 1466 1466 1466 1465 1465 1466 1465 1462 1460 1460 1460 1459 1458 1457 1456 1455 1454 1452 1451 1450 1449 1448 1447 1446 1445 1445 1444 1444 1443
1467 1466 1465 1464 1463 1463 1462 1462 1461 1461 1461 1460 1460 1460 1460 1460 1461 1461 1460 1460 1459 1459 1456 1455 1455 1455 1454 1453 1452 1450 1449 1447 1446 1445 1444 1443 1442 1441 1440 1439 1439 1438 1437
1462 1461 1460 1459 1458 1457 1457 1456 1456 1455 1455 1455 1455 1455 1455 1455 1455 1455 1455 1454 1454 1453 1452 1450 1451 1450 1449 1448 1447 1445 1444 1443 1441 1440 1439 1438 1437 1436 1434 1434 1433 1432 1431
1457 1456 1455 1454 1453 1452 1452 1451 1451 1450 1450 1450 1450 1451 1450 1450 1450 1450 1449 1449 1448 1448 1448 1445 1445 1445 1444 1443 1442 1441 1439 1438 1437 1435 1434 1433 1432 1431 1429 1428 1427 1426 1425
1452 1451 1450 1449 1448 1447 1447 1446 1446 1445 1445 1446 1446 1446 1445 1445 1444 1444 1444 1443 1443 1443 1443 1441 1439 1439 1438 1438 1437 1436 1435 1433 1432 1431 1429 1428 1427 1426 1424 1423 1422 1421 1420
1448 1446 1445 1444 1443 1443 1442 1442 1441 1441 1441 1440 1440 1440 1439 1439 1439 1439 1439 1438 1438 1437 1437 1436 1435 1434 1433 1433 1432 1431 1430 1429 1427 1426 1425 1423 1422 1420 1419 1418 1416 1415 1415
1443 1442 1440 1439 1438 1438 1437 1437 1436 1436 1435 1435 1434 1434 1434 1434 1434 1434 1434 1434 1433 1433 1432 1431 1430 1429 1429 1428 1427 1427 1426 1424 1423 1422 1420 1419 1417 1416 1414 1413 1412 1410 1409
1438 1437 1436 1435 1434 1433 1433 1432 1432 1431 1431 1430 1430 1429 1429 1429 1429 1429 1429 1429 1429 1428 1427 1427 1425 1424 1424 1424 1423 1423 1422 1420 1418 1418 1416 1414 1414 1412 1411 1409 1408 1406 1405
1434 1433 1432 1431 1430 1429 1429 1428 1428 1428 1427 1426 1425 1425 1424 1424 1424 1424 1424 1424 1424 1423 1423 1423 1421 1420 1419 1419 1419 1418 1418 1416 1415 1414 1413 1410 1410 1408 1407 1405 1404 1403 1401
1430 1429 1428 1427 1426 1425 1425 1425 1425 1424 1423 1422 1421 1420 1420 1420 1420 1420 1420 1420 1419 1419 1418 1417 1416 1415 1415 1415 1415 1415 1413 1412 1411 1410 1410 1408 1406 1405 1403 1402 1400 1399 1398
1427 1425 1424 1423 1422 1422 1421 1421 1421 1420 1419 1418 1418 1417 1417 1416 1417 1417 1417 1416 1415 1414 1414 1413 1412 1411 1411 1410 1410 1410 1409 1408 1406 1406 1406 1404 1403 1401 1400 1398 1397 1396 1395
1423 1422 1421 1420 1419 1418 1418 1417 1417 1416 1415 1414 1414 1414 1414 1413 1413 1413 1413 1412 1411 1411 1410 1409 1408 1407 1407 1406 1406 1406 1405 1404 1403 1402 1401 1401 1400 1399 1397 1396 1395 1394 1393